Location: Episcopal Church
(44.8031°N, 87.6198°W)
Time: 16:13:39
(UTC+00:00)

ERS-1 - Pass Details

Date: 11 December 2025
Orbit: 738 x 783 km, 98.8° (Epoch: 20 May)

Event Time Altitude Azimuth Distance (km) Brightness Sun altitude
Rises 23:30:13 0° 162° (SSE) 3,203 7.7 -13.7°
Reaches altitude 10° 23:32:31 10° 162° (SSE) 2,275 7.0 -14.1°
Maximum altitude 23:37:31 85° 74° (ENE) 757 4.4 -14.9°
Drops below altitude 10° 23:42:31 10° 347° (NNW) 2,266 6.9 -15.8°
Sets 23:44:48 0° 347° (NNW) 3,190 7.7 -16.2°
